www.pogodaiklimat.ru
ПОГОДА в Хомстеде
Время
и дата
01:55 13.04
02:55 13.04
03:55 13.04
04:55 13.04
05:55 13.04
06:55 13.04
07:55 13.04
08:55 13.04
09:55 13.04
10:55 13.04
11:11 13.04
11:55 13.04
12:55 13.04
13:55 13.04
14:55 13.04
15:55 13.04
16:55 13.04
17:55 13.04
18:55 13.04
19:55 13.04
20:27 13.04
20:30 13.04
20:55 13.04
21:55 13.04
22:55 13.04
23:55 13.04
23:59 13.04
00:08 14.04
00:55 14.04
01:55 14.04
02:07 14.04
02:55 14.04
03:55 14.04
04:55 14.04
05:39 14.04
05:40 14.04
05:55 14.04
06:38 14.04
06:43 14.04
06:55 14.04
06:57 14.04
07:55 14.04
08:55 14.04
09:55 14.04
10:55 14.04
11:55 14.04
12:55 14.04
13:55 14.04
Ветер
(напр.,м/с)
Видим. Явления Облачность Т
(С)
Тd
(С)
f
(%)
Тe
(С)
Тes
(С)
Комфортность P
(гПа)
Po
(гПа)
Тmin
(С)
Tmax
(С)
R
(мм)
R24
(мм)
S
(см)
СЗ 4 16 км ясно +19.4 +13.1 67 +21 +21 комфорт 1021.7 1021.0
СЗ 3 16 км ясно +19.0 +13.2 69 +20 +20 1021.7 1021.0
С 2 16 км ясно +18.6 +13.0 70 +20 +20 1022.0 1021.3
С 4 16 км ясно +18.3 +13.2 72 +19 +19 1022.3 1021.7
С 3 16 км ясно +18.1 +13.0 72 +18 +18 1023.0 1022.3
СЗ 3 16 км ясно +18.1 +13.0 72 +18 +18 1023.3 1022.7 +17.3 +19.7
С 5 16 км ясно +20.2 +12.4 61 +22 +23 комфорт 1023.3 1022.7
С 8 16 км ясно +22.8 +8.1 39 +24 +25 комфорт 1023.7 1023.0
С 6 16 км ясно +24.1 +10.4 42 +25 +29 комфорт 1024.0 1023.3
СВ 7 16 км ясно +25.4 +13.9 49 +28 +32 жарко 1024.0 1023.3
В 7
{10}
16 км ясно +26.0 +14.0 48 +28 +33 жарко 1023.7 1023.0
СВ 6
{10}
16 км ясно +25.9 +13.7 47 +28 +35 жарко 1023.3 1022.7
СВ 6 16 км ясно +26.7 +14.8 48 +29 +37 жарко 1022.7 1022.0 +18.3 +26.9
СВ 8 16 км ясно +26.4 +13.8 46 +29 +32 жарко 1021.7 1021.0
СВ 8
{10}
16 км ясно +26.8 +13.8 45 +29 +32 жарко 1021.3 1020.6
СВ 6 16 км ясно +26.3 +14.1 47 +29 +34 жарко 1021.0 1020.3
СВ 6 16 км ясно +25.6 +13.1 46 +28 +31 жарко 1021.0 1020.3
СВ 5 16 км ясно +24.7 +13.9 51 +27 +29 жарко 1021.0 1020.3
СВ 3 16 км ясно +23.0 +14.0 57 +26 +27 жарко 1021.0 1020.3 +22.9 +24.1
СВ 4 16 км ясно +21.4 +13.8 62 +24 +24 комфорт 1021.3 1020.6
СВ 3 16 км слабая морось 5/5 1200 m
[St]
+22.0 +14.0 60 +25 +25 комфорт 1021.7 1021.0
СВ 3 16 км 8/8 1230 м +22.0 +14.0 60 +25 +25 комфорт 1021.7 1021.0
СВ 5 16 км 8/8 1230 м +22.5 +13.8 58 +26 +26 жарко 1021.7 1021.0
СВ 3 16 км 5/2 1200 m
[Ci]
+21.3 +13.7 62 +24 +24 комфорт 1022.0 1021.3
СВ 3 16 км ясно +20.7 +13.6 64 +24 +24 комфорт 1021.3
СВ 2 16 км ясно +20.8 +13.2 62 +24 +24 комфорт 1021.0
СВ 2 16 км слабая морось 2/2 1170 m
[St]
+21.0 +14.0 64 +25 +25 комфорт 1021.0
штиль 0 16 км ясно +21.0 +14.0 64 +24 +24 комфорт 1021.0
СВ 2 16 км ясно +19.9 +13.6 67 +22 +22 комфорт 1020.6 +19.9 +22.9
штиль 0 16 км ясно +18.9 +13.1 69 +20 +20 1020.0
штиль 0 16 км слабая морось 2/2 1170 m
[St]
+19.0 +13.0 68 +20 +20 1020.0
С 2 16 км слабая морось 2/2 1170 m
[St]
+19.8 +14.4 71 +22 +22 комфорт 1019.6
С 3 16 км слабая морось 8/8 1170 m
[St]
+19.2 +13.6 70 +21 +21 комфорт 1019.6
С 3 16 км слабая морось 8/8 1170 m
[St]
+19.0 +14.2 74 +20 +20 1020.3
С 2 16 км 8/8 1200 м +20.0 +14.0 68 +23 +23 комфорт 1020.3
С 2 16 км слабая морось 8/8 1200 m
[St]
+20.0 +14.0 68 +23 +23 комфорт 1020.3
С 2 16 км слабая морось 10/10 1230 m
[St]
+19.9 +14.3 70 +23 +23 комфорт 1020.6
С 3 16 км 10/10 1230 м +21.0 +15.0 69 +25 +25 комфорт 1021.7 1021.0
СВ 2 16 км слабая морось 10/10 1230 m
[St]
+21.0 +15.0 69 +25 +25 комфорт 1021.7 1021.0
СВ 4 16 км слабая морось 10/10 1230 m
[St]
+21.5 +13.9 62 +24 +24 комфорт 1022.0 1021.3 +18.2 +21.5
СВ 5 16 км 10/10 1230 м +22.0 +14.0 60 +25 +25 комфорт 1022.0 1021.3
СВ 5 16 км 10/10 1290 м +22.8 +13.3 55 +26 +26 жарко 1022.3 1021.7
СВ 6 16 км 8/8 1320 м +23.7 +12.9 51 +26 +26 жарко 1022.7 1022.0
СВ 6 16 км 10/10 1290 м +24.9 +13.7 50 +27 +27 жарко 1023.3 1022.7
СВ 5 16 км 5/5 1320 м +25.6 +13.4 47 +28 +31 жарко 1023.0 1022.3
СВ 7 16 км 10/10 1320 м +25.7 +13.8 48 +28 +28 жарко 1022.3 1021.7
СВ 6
{9}
16 км 2/2 1350 м +25.8 +12.9 45 +28 +34 жарко 1022.0 1021.3 +21.7 +26.1
В 6 16 км 2/2 1260 м +25.3 +13.5 48 +27 +34 жарко 1021.0 1020.3
Местоположение метеостанции Homestead Air Force Base: широта 25.4833 долгота -80.3833 высота над уровнем моря 2 м.
В архиве по умолчанию представлена погода в Хомстеде за последние 1-2 суток. Обновление информации о фактической погоде в базе происходит ежечасно! Архивные данные за месяц целиком и за предыдущие месяцы Вы можете получить, выбрав интересующий диапазон дат из раскрывающегося списка и нажав кнопку "Ввод!".
Внимание! Архив погоды МЕТАР в базе сайта по станциям, не включенным в климатический монитор, хранится не более 60 дней. Нет смысла пытаться выбрать более раннюю дату.
*Определитесь, кто Вы:
Внимание! Время в таблицах - местное (без учета летнего времени). Для получения всемирного времени необходимо вычесть поправку, которая равна -5 ч.
Смотрите также архив погоды в соседних городах и на ближайших метеорологических станциях:
Партнеры нашего сайта:      
Пояснения к столбцам:
  • Ветер - указаны скорость ветра в м/с - средняя за 10 мин, порывы в срок и между сроками (в фигурных скобках) и направление, откуда дует ветер: С - северный,
  • СВ - северо-восточный, В - восточный, ЮВ - юго-восточный, Ю - южный, ЮЗ - юго-западный, З - западный, СЗ - северо-западный.
  • Видимость - горизонтальная дальность видимости в метрах или километрах. При видимости от 1 до 10 км при отсутствии осадков обычно наблюдается дымка, при ухудшении видимости до 1 км и менее - туман. В сухую погоду видимость может ухудшаться дымом, пылью или мглою.
  • Явления - указаны атмосферные явления, наблюдавшиеся в срок или в последний час перед сроком; фигурными скобками обозначены явления, наблюдавшиеся между сроками (за 1-3 часа до срока); квадратными скобками обозначены град или гололедные отложения с указанием их диаметра в мм.
  • Облачность - указаны через наклонную черту общая и нижняя облачность в баллах и высота нижней границы облаков в метрах; квадратными скобками обозначены формы облаков: Ci - перистые, Cs - перисто-слоистые, Cc - перисто-кучевые, Ac - высококучевые, As - высокослоистые, Sc - слоисто-кучевые, Ns - слоисто-дождевые, Cu - кучевые, Cb - кучево-дождевые. Подробнее классификацию облаков см. в Атласе облаков (PDF).
  • T - Температура воздуха - температура, измеренная на высоте 2 м над землей.
  • Td - Температура точки росы - температура, при понижении до которой содержащийся в воздухе водяной пар достигнет насыщения.
  • f - Относительная влажность воздуха - влажноcть воздуха, измеренная на высоте 2 м над землей.
  • Te - Эффективная температура - температура, которую ощущает одетый по сезону человек в тени. Характеристика душности погоды. При расчете учитывается влияние влажности воздуха и скорости ветра на теплоощущения человека.
  • Tes - Эффективная температура на солнце - температура, которую ощущает человек, с поправкой на солнечный нагрев. Характеристика знойности погоды. Зависит от высоты солнца над горизонтом, облачности и скорости ветра. Ночью, в пасмурную погоду, а также при ветре 12 м/с и более поправка равна нулю.
  • P - Атмосферное давление - приведенное к уровню моря атмосферное давление.
  • Po - Атмосферное давление - измеренное на уровне метеостанции атмосферное давление.
  • Tmin - Минимальная температура - минимум температуры воздуха на высоте 2 м над землей.
  • Tmax - Максимальная температура - максимум температуры воздуха на высоте 2 м над землей.
  • R - Количество осадков - Количество выпавших осадков за период времени, мм. При наведении курсора мыши на число - период времени, за который выпало указанное количество осадков.
  • R24 - Количество осадков - Количество выпавших осадков за 24 часа, мм.
  • S - Снежный покров - Высота снежного покрова, см. При наведении курсора мыши на число - состояние снежного покрова и степень покрытия местности в баллах.